Temp
18 18 18 18 18 18 18 18 18 19 19 18 18 18 17 17 17 17 17 17 18 18 18 18 18 18 19 19 19 19 13 14 17 18 19 19 18 17 15 13 12 11 10 10 12
18 18 18 18 18 19 18 18 18 19 19 18 18 18 17 18 18 17 17 18 18 18 18 18 18 19 19 19 19 16 13 17 19 18 18 16 16 15 14 12 11 11 11 12 14
18 19 19 19 19 19 19 19 18 18 18 18 18 17 17 17 18 17 17 18 18 18 18 18 18 19 18 18 18 16 16 17 19 20 19 16 13 13 13 10 9 8 9 11 13
18 18 18 18 19 19 19 19 18 18 18 18 18 17 17 17 16 17 17 17 18 18 18 18 19 19 17 17 18 18 18 19 19 19 19 15 11 9 9 8 8 9 9 11 11
18 18 19 19 19 19 19 19 18 18 18 18 18 18 18 17 17 17 17 18 18 18 19 19 19 18 17 17 18 17 19 19 18 16 13 14 10 9 8 8 9 9 9 9 9
18 18 18 19 19 19 19 18 18 18 18 18 18 18 18 16 17 18 18 18 18 18 18 18 18 18 18 17 17 18 18 17 18 15 14 12 10 11 8 8 8 8 7 7 7
18 18 18 18 18 18 18 18 18 18 18 18 18 18 18 17 18 18 19 18 18 18 18 18 18 18 18 18 18 18 18 16 16 16 13 16 10 8 8 8 8 7 7 7 7
18 18 18 18 18 18 18 18 18 18 19 19 18 18 18 18 18 19 19 19 19 19 19 18 19 18 18 17 17 14 14 14 14 16 15 14 8 8 8 8 7 6 6 6 6
18 18 18 18 18 18 18 18 18 19 19 19 19 19 18 18 18 18 19 19 19 19 19 19 19 17 17 13 12 11 14 15 15 13 14 11 7 8 7 6 5 5 5 5 6
18 17 17 18 18 18 18 18 18 19 19 19 18 19 18 18 17 18 19 19 19 19 19 19 17 12 10 11 12 14 14 14 14 13 9 7 6 7 6 5 4 4 4 5 5
18 17 18 18 18 18 18 19 19 18 18 17 17 17 18 18 18 19 19 19 19 18 14 15 12 11 12 12 14 14 14 13 14 11 7 6 6 6 5 4 4 3 4 4 4
18 18 18 18 18 18 18 18 18 18 17 18 18 18 18 18 18 18 19 19 16 12 14 12 11 12 13 13 12 13 14 12 12 9 8 7 5 5 4 4 3 3 3 3 3
18 18 18 18 18 18 18 19 18 18 17 17 17 17 17 17 16 16 17 16 14 12 11 11 13 13 13 11 11 11 13 13 12 8 7 7 6 4 4 4 3 3 3 3 2
18 18 18 18 18 18 19 18 18 18 12 14 17 17 17 17 16 15 16 16 15 14 13 12 13 13 12 12 11 12 13 12 10 10 8 7 7 4 3 2 3 2 2 2 2
18 18 18 18 18 18 18 18 18 18 15 16 17 17 17 17 15 15 15 16 12 13 13 13 12 12 12 12 11 12 9 9 10 9 10 9 7 4 3 2 2 2 2 1 1
18 18 18 18 18 19 19 18 18 14 16 16 16 15 16 15 15 15 13 15 13 11 11 12 13 12 12 12 12 10 9 9 8 7 9 9 8 2 1 2 1 2 2 1 1
18 18 18 18 18 18 18 18 14 13 15 15 15 14 13 12 12 11 9 7 7 12 8 9 12 11 12 11 10 8 6 8 11 8 10 7 5 1 3 3 2 2 1 1 -0
18 18 18 18 18 18 18 14 15 15 14 14 14 14 13 12 11 9 9 7 7 7 6 8 12 10 11 11 11 9 7 7 10 9 7 6 3 1 3 3 2 2 1 0 -1
18 18 18 18 17 18 18 12 13 14 14 14 14 13 12 12 11 8 7 7 7 7 9 7 10 10 11 11 10 10 7 8 7 6 5 3 2 2 3 3 2 1 0 -1 -2
18 18 17 17 18 18 12 11 12 12 13 13 14 12 13 11 12 9 8 7 7 8 7 8 7 9 10 11 10 9 9 7 4 7 6 5 2 2 1 0 1 0 -0 -1 -3
17 18 17 17 17 17 10 11 11 12 13 13 13 12 11 11 10 9 8 7 7 7 8 7 7 9 9 8 8 7 6 5 5 4 5 3 3 2 2 0 -1 1 -0 -2 -3
17 15 17 17 15 9 9 11 13 12 13 12 11 12 11 10 10 9 9 8 7 7 7 6 4 6 9 8 7 6 5 4 3 4 2 1 2 3 2 2 2 1 -1 -2 -4
18 17 17 17 12 7 10 9 10 11 10 12 11 11 11 10 10 8 7 7 8 7 6 6 5 6 8 8 7 5 5 6 2 1 1 1 2 2 1 1 1 0 -1 -4 -5
18 13 17 16 13 9 9 10 10 11 11 11 11 11 11 10 8 8 7 7 7 7 7 6 4 6 7 7 5 5 5 5 3 1 1 0 0 1 -0 1 1 -0 -3 -5 -6
17 13 14 11 12 11 11 10 10 10 10 11 10 11 11 10 9 8 6 6 7 7 6 5 5 4 5 4 4 5 4 3 2 2 1 1 -0 -0 -0 0 0 -1 -4 -6 -7
17 15 14 12 12 11 10 11 10 8 10 10 10 9 9 9 9 8 7 7 7 6 5 3 4 3 4 3 2 3 3 2 2 2 1 0 -1 1 2 0 -1 -3 -6 -6 -8
16 16 17 9 11 11 10 10 10 9 8 8 9 7 7 6 7 6 7 6 6 5 3 3 2 1 1 1 3 2 2 2 2 2 0 -1 -0 1 -0 -1 -2 -5 -6 -7 -8
Height
1521 1520 1520 1519 1518 1518 1518 1518 1519 1519 1519 1520 1522 1523 1524 1525 1525 1525 1525 1526 1525 1525 1526 1525 1525 1525 1525 1525 1525 1526 1539 1547 1539 1537 1535 1532 1531 1535 1539 1535 1534 1543 1546 1546 1539
1522 1520 1520 1520 1519 1519 1519 1520 1520 1521 1522 1523 1525 1525 1526 1526 1527 1526 1528 1526 1526 1526 1527 1527 1526 1526 1525 1526 1527 1527 1543 1538 1533 1534 1535 1535 1534 1538 1542 1543 1548 1550 1550 1546 1540
1521 1521 1521 1519 1519 1519 1520 1521 1522 1524 1525 1526 1528 1528 1528 1528 1528 1530 1529 1528 1528 1529 1529 1529 1529 1529 1528 1528 1529 1530 1538 1534 1533 1533 1534 1536 1540 1541 1544 1555 1562 1560 1555 1549 1541
1521 1520 1520 1518 1519 1520 1522 1523 1524 1526 1528 1529 1530 1530 1528 1529 1537 1533 1532 1531 1531 1531 1531 1530 1530 1530 1531 1532 1532 1534 1533 1533 1533 1534 1535 1541 1551 1554 1553 1568 1567 1563 1559 1554 1548
1522 1521 1520 1519 1520 1522 1523 1525 1526 1528 1530 1531 1532 1532 1531 1532 1536 1534 1533 1533 1533 1533 1532 1532 1532 1532 1533 1533 1532 1533 1533 1534 1537 1537 1543 1545 1556 1559 1567 1571 1570 1567 1561 1558 1556
1522 1522 1521 1520 1521 1523 1525 1526 1529 1531 1532 1533 1533 1534 1534 1532 1537 1536 1535 1535 1534 1534 1534 1534 1534 1534 1534 1534 1534 1533 1534 1535 1538 1540 1546 1548 1560 1560 1577 1576 1573 1570 1566 1565 1562
1523 1523 1522 1522 1524 1526 1527 1530 1532 1534 1535 1536 1536 1536 1535 1541 1539 1538 1536 1536 1536 1535 1535 1535 1534 1535 1534 1533 1533 1533 1535 1536 1541 1543 1550 1543 1567 1579 1582 1579 1576 1573 1572 1569 1567
1525 1525 1525 1525 1527 1529 1531 1533 1535 1537 1538 1539 1539 1538 1539 1542 1541 1539 1537 1537 1536 1536 1535 1535 1535 1535 1534 1535 1535 1540 1542 1550 1548 1544 1549 1551 1587 1586 1585 1580 1577 1575 1573 1570 1568
1526 1527 1527 1529 1531 1533 1535 1536 1538 1539 1540 1540 1541 1540 1544 1545 1541 1538 1538 1538 1537 1537 1537 1537 1536 1538 1536 1542 1551 1553 1559 1554 1552 1551 1548 1552 1585 1587 1587 1583 1582 1580 1578 1575 1571
1528 1529 1530 1532 1534 1536 1537 1539 1540 1541 1542 1542 1543 1545 1547 1548 1543 1540 1540 1539 1538 1538 1539 1539 1541 1546 1546 1550 1569 1561 1560 1557 1558 1563 1565 1575 1589 1591 1591 1585 1584 1582 1580 1576 1573
1530 1531 1532 1534 1537 1538 1539 1540 1544 1546 1545 1547 1549 1549 1549 1548 1546 1541 1542 1541 1540 1540 1546 1547 1554 1564 1561 1558 1554 1555 1557 1561 1559 1564 1575 1585 1588 1590 1589 1585 1584 1583 1580 1576 1573
1532 1533 1535 1537 1539 1540 1541 1541 1542 1547 1550 1551 1551 1551 1550 1549 1546 1544 1544 1544 1543 1551 1548 1555 1565 1561 1560 1557 1557 1557 1559 1564 1562 1566 1569 1581 1587 1591 1592 1591 1590 1588 1584 1580 1575
1534 1536 1537 1539 1541 1542 1542 1543 1543 1545 1547 1553 1552 1551 1552 1552 1552 1551 1549 1550 1552 1556 1558 1563 1566 1561 1560 1562 1563 1562 1561 1562 1565 1570 1573 1579 1589 1593 1596 1593 1590 1589 1587 1583 1579
1535 1537 1538 1540 1544 1542 1544 1545 1546 1546 1558 1561 1555 1556 1555 1553 1556 1556 1552 1553 1554 1560 1561 1566 1564 1563 1563 1563 1565 1566 1558 1560 1560 1566 1577 1570 1583 1594 1597 1595 1593 1592 1588 1585 1580
1537 1537 1538 1541 1541 1543 1546 1546 1546 1547 1580 1564 1560 1560 1559 1557 1562 1559 1555 1555 1561 1563 1563 1572 1568 1565 1565 1566 1565 1566 1558 1558 1557 1564 1563 1569 1581 1593 1599 1602 1599 1595 1592 1587 1583
1537 1538 1539 1540 1541 1543 1545 1547 1548 1560 1579 1565 1563 1563 1561 1562 1564 1563 1558 1557 1561 1563 1565 1568 1568 1567 1567 1564 1563 1559 1558 1560 1564 1569 1572 1569 1574 1605 1603 1601 1597 1596 1592 1586 1580
1537 1538 1539 1540 1542 1543 1546 1548 1561 1577 1567 1571 1568 1566 1567 1569 1569 1569 1573 1574 1581 1575 1586 1576 1570 1569 1568 1568 1566 1567 1572 1580 1573 1580 1571 1573 1583 1605 1598 1598 1597 1594 1590 1586 1581
1538 1538 1539 1540 1541 1544 1547 1551 1570 1569 1570 1568 1568 1569 1573 1573 1576 1577 1579 1586 1584 1585 1594 1591 1579 1576 1573 1575 1575 1576 1582 1594 1589 1587 1581 1578 1598 1605 1600 1599 1596 1593 1589 1583 1578
1538 1539 1540 1541 1543 1545 1549 1568 1571 1569 1569 1570 1570 1574 1578 1575 1577 1583 1592 1593 1590 1587 1592 1597 1586 1578 1577 1576 1578 1577 1589 1586 1591 1594 1596 1596 1603 1601 1600 1598 1595 1592 1587 1582 1577
1538 1540 1541 1543 1544 1547 1551 1570 1571 1570 1569 1570 1574 1577 1580 1582 1580 1585 1591 1593 1592 1591 1590 1595 1599 1583 1579 1578 1579 1581 1584 1593 1603 1596 1594 1589 1601 1600 1602 1597 1593 1588 1583 1579 1574
1539 1541 1543 1544 1545 1547 1563 1569 1570 1570 1570 1571 1575 1578 1581 1583 1584 1589 1594 1594 1593 1592 1590 1592 1596 1588 1583 1589 1590 1590 1593 1599 1605 1610 1607 1609 1595 1598 1597 1594 1591 1586 1582 1578 1572
1538 1541 1543 1545 1548 1556 1564 1565 1568 1571 1571 1572 1574 1576 1579 1583 1586 1589 1590 1595 1594 1593 1593 1594 1601 1603 1590 1589 1589 1591 1598 1602 1612 1612 1612 1616 1600 1594 1595 1592 1589 1586 1582 1579 1573
1537 1541 1544 1544 1555 1564 1566 1567 1569 1571 1573 1574 1576 1576 1578 1582 1587 1590 1593 1596 1595 1594 1595 1594 1600 1604 1594 1594 1592 1597 1598 1597 1605 1612 1612 1615 1597 1592 1593 1589 1587 1585 1581 1577 1572
1537 1542 1544 1544 1547 1552 1563 1569 1573 1573 1574 1575 1577 1577 1579 1583 1587 1592 1595 1596 1595 1595 1595 1593 1599 1597 1601 1595 1603 1602 1600 1596 1601 1614 1610 1609 1602 1594 1592 1588 1582 1579 1576 1572 1569
1535 1539 1541 1550 1551 1552 1557 1566 1571 1574 1575 1575 1578 1579 1580 1585 1587 1592 1596 1598 1597 1596 1595 1596 1600 1601 1597 1600 1600 1598 1598 1599 1605 1606 1611 1602 1604 1597 1593 1587 1583 1579 1574 1570 1565
1533 1536 1541 1547 1551 1554 1558 1565 1568 1575 1576 1577 1578 1581 1582 1584 1587 1591 1593 1595 1595 1597 1597 1598 1603 1603 1602 1601 1601 1600 1599 1601 1601 1602 1603 1601 1601 1593 1590 1585 1582 1576 1572 1569 1564
1531 1533 1537 1551 1553 1556 1560 1563 1566 1570 1578 1576 1578 1581 1586 1589 1589 1590 1591 1594 1595 1597 1600 1602 1604 1609 1612 1608 1601 1607 1599 1599 1597 1599 1601 1602 1597 1591 1585 1581 1578 1573 1572 1568 1562
Wind_Speed
6 5 5 5 6 6 6 8 9 10 12 16 18 18 18 17 12 7 6 4 4 6 9 8 8 5 6 5 4 3 5 2 2 2 2 7 5 20 20 27 37 17 19 16 19
5 5 4 3 4 6 7 9 10 12 15 17 16 16 15 13 15 17 10 5 5 8 8 6 4 4 3 3 2 5 4 4 1 1 2 8 9 6 11 20 24 26 26 27 24
5 4 2 3 3 6 7 9 11 13 16 15 12 9 5 2 8 13 11 7 7 6 3 3 5 4 4 2 2 2 4 3 2 0 2 7 20 11 7 12 17 19 27 30 29
5 4 3 4 4 7 9 11 13 15 15 13 9 8 4 2 4 9 8 8 8 6 5 5 3 2 3 3 3 2 1 2 1 6 6 8 13 32 31 13 17 24 29 30 35
6 5 4 4 7 10 11 12 15 16 15 12 8 7 11 14 8 9 7 5 5 3 4 5 7 4 2 3 3 1 2 1 9 24 30 31 27 20 25 20 25 28 32 35 35
7 6 7 8 12 14 13 14 17 17 12 9 10 10 12 19 13 8 8 7 4 4 6 7 5 5 2 2 2 3 3 4 10 19 12 18 10 8 15 20 27 33 38 39 38
8 8 10 14 16 15 16 20 22 23 23 23 22 24 26 13 11 12 6 6 7 8 7 7 6 5 4 1 8 3 4 4 7 10 10 23 15 10 15 23 29 33 35 37 36
8 11 14 18 18 18 21 22 19 16 15 17 17 15 9 13 17 12 7 5 6 6 8 9 8 4 6 3 6 6 5 4 6 13 6 1 5 12 13 24 30 31 32 34 34
10 13 16 19 19 22 21 18 16 13 10 7 8 8 5 11 24 13 9 8 7 6 7 7 6 9 11 4 5 7 2 5 4 17 1 8 5 9 15 25 28 33 34 34 35
11 14 17 19 20 19 19 17 14 11 11 10 7 6 13 10 29 11 10 9 7 8 8 10 8 4 6 7 1 2 3 3 3 6 18 19 12 11 19 29 27 30 35 36 36
12 15 19 22 23 26 24 22 13 15 23 15 14 14 13 7 19 17 8 14 7 10 5 10 9 6 6 5 2 2 1 1 3 6 9 13 12 10 15 24 23 27 32 35 33
12 17 21 23 23 20 14 1 7 14 13 18 19 16 13 16 10 25 13 6 13 5 2 6 6 6 3 4 5 3 3 3 1 7 11 9 11 8 14 14 21 23 29 33 34
10 17 19 21 15 8 5 16 18 9 6 8 11 14 13 11 12 24 14 5 7 7 8 7 4 6 5 6 8 4 4 1 4 5 9 14 5 5 6 16 20 27 30 34 33
8 13 19 16 3 7 17 13 5 2 5 11 9 10 15 3 7 22 11 4 7 3 2 6 6 4 5 3 3 4 1 2 5 5 4 6 1 4 1 7 16 24 31 31 31
6 10 14 15 3 13 13 7 1 0 5 8 6 5 14 10 4 24 15 13 5 4 4 2 4 6 6 3 2 7 8 3 1 4 3 3 2 2 4 8 6 16 25 26 31
5 7 10 9 9 13 13 4 3 5 2 3 5 6 4 11 7 6 16 9 8 5 7 1 1 3 3 3 2 8 5 5 4 3 2 3 3 3 2 2 4 10 21 24 31
4 5 8 7 8 13 13 2 5 5 3 4 3 4 3 6 6 9 6 10 5 4 7 6 3 4 4 5 5 9 8 4 5 5 5 2 5 2 3 1 4 8 20 24 28
5 4 5 6 10 13 9 4 6 1 1 1 2 3 4 6 5 8 4 6 7 6 3 5 5 6 10 4 2 4 4 4 4 4 5 6 2 3 4 2 5 11 19 22 27
8 7 7 9 10 12 4 5 4 2 1 1 3 5 5 3 4 6 5 3 2 6 4 6 4 5 5 4 2 4 5 2 1 1 2 3 2 5 2 5 11 15 19 25 26
9 9 7 8 9 8 4 4 1 1 1 1 3 1 2 5 4 4 2 2 5 3 1 1 3 3 5 3 8 6 1 4 4 5 6 2 3 1 5 7 10 17 21 27 26
11 5 4 7 8 4 4 3 3 2 1 3 2 3 3 2 3 2 1 1 3 5 5 2 3 4 2 5 2 5 4 6 2 3 3 4 2 3 4 7 8 21 21 29 34
7 3 3 5 3 4 3 5 4 2 4 3 4 3 3 2 2 2 2 2 4 2 2 1 4 3 2 1 3 4 3 4 4 5 3 2 4 3 3 10 13 20 21 28 27
8 4 4 4 4 2 2 4 4 2 4 2 2 2 1 3 2 2 3 2 5 3 1 1 2 3 6 4 3 5 1 1 3 3 4 2 4 6 12 14 17 21 22 24 24
6 2 3 3 6 8 6 3 4 4 3 3 3 2 3 2 5 4 2 0 2 3 2 1 2 4 5 3 1 5 3 2 3 2 2 5 8 11 9 13 26 26 22 24 27
4 2 4 2 2 8 5 4 5 3 2 2 3 2 3 3 2 3 2 1 2 1 1 3 1 1 4 3 2 2 1 2 3 2 4 5 6 8 8 17 24 25 23 20 27
6 6 7 6 12 8 2 3 5 3 1 0 4 2 3 4 1 5 4 3 2 0 2 3 1 2 3 1 3 2 2 5 3 2 6 5 8 6 23 21 23 22 15 20 25
7 13 8 2 3 3 3 4 5 11 3 4 7 5 4 3 9 9 7 5 4 4 2 2 2 3 4 5 2 4 4 2 2 4 5 4 5 17 17 20 25 14 13 24 26
Wind_Direction
55 57 61 70 82 87 98 108 105 100 108 117 118 111 102 84 74 68 51 59 83 103 99 95 99 83 68 58 54 45 62 53 34 129 261 7 48 74 77 70 62 62 56 43 62
48 42 39 57 99 114 114 115 111 106 117 122 118 118 118 82 64 55 47 69 106 125 109 95 92 74 66 57 67 77 89 197 254 169 94 55 56 10 63 47 41 51 65 66 75
34 39 30 50 81 124 125 122 120 117 125 127 123 123 126 82 50 27 43 75 110 118 95 47 39 43 40 34 40 108 145 200 9 74 78 101 51 36 77 42 37 41 54 60 67
37 41 29 34 119 142 138 131 126 126 130 127 114 83 83 121 71 26 45 77 99 84 58 48 18 31 35 27 13 30 254 225 20 22 100 58 79 56 68 80 76 72 67 62 59
45 51 30 81 129 139 132 126 129 130 128 122 112 88 86 80 51 53 58 82 84 61 58 48 33 30 34 348 11 104 344 45 66 86 93 91 74 91 71 84 79 71 63 54 50
55 46 73 94 123 129 125 122 124 123 123 106 112 90 84 73 49 47 59 67 62 59 45 26 9 348 347 6 74 319 322 353 100 108 114 101 62 75 62 76 69 61 55 51 46
57 74 91 110 118 121 120 120 117 109 104 103 96 87 70 63 37 37 35 59 57 59 51 34 23 28 348 51 342 355 65 73 46 99 128 101 39 67 79 76 67 58 52 48 44
69 98 111 117 114 117 119 120 121 106 105 109 92 86 75 42 21 21 34 48 54 59 54 38 43 41 13 335 23 35 48 43 10 15 45 98 70 43 79 74 63 59 50 44 40
91 111 121 123 115 118 117 118 113 106 113 124 97 76 48 26 16 17 55 54 75 58 57 55 58 46 21 45 29 16 54 21 15 24 78 66 111 59 73 66 55 50 40 31 27
110 123 128 129 123 122 116 115 102 101 100 99 86 83 31 31 27 44 61 53 64 97 67 43 48 60 24 40 95 314 357 338 39 19 69 77 91 61 56 65 57 47 36 32 28
123 131 134 134 131 126 121 117 101 67 70 74 71 74 48 25 27 48 73 40 49 65 67 36 57 24 341 3 340 242 191 3 92 14 70 91 99 75 73 65 57 45 34 30 25
130 141 143 145 142 144 150 275 127 125 77 72 67 58 44 37 43 33 61 69 46 55 352 34 38 336 225 15 18 42 92 1 6 104 97 132 97 89 66 65 60 43 30 24 22
125 155 155 156 159 190 205 134 131 129 86 36 39 30 17 42 46 14 27 55 66 52 44 89 323 332 15 13 10 355 120 144 237 78 61 125 125 109 62 62 50 36 27 22 19
142 162 172 169 179 147 147 142 131 183 78 335 359 20 18 67 53 12 36 47 43 74 88 75 354 23 27 32 16 345 175 278 237 154 203 208 249 140 120 41 34 24 18 14 9
144 161 178 192 209 164 170 160 32 152 61 323 1 19 34 77 331 13 31 70 69 6 86 259 1 16 28 343 338 259 317 258 205 165 115 182 93 121 11 21 2 9 7 5 3
132 150 174 190 172 175 174 190 337 43 78 20 19 2 37 34 28 17 38 74 63 64 40 28 3 50 288 300 54 295 21 32 53 84 2 45 136 39 52 314 314 352 356 358 356
125 149 175 169 187 178 176 206 38 85 327 355 11 8 92 10 29 27 28 34 45 37 14 339 345 328 7 10 15 19 25 355 358 6 245 318 52 194 188 322 334 330 347 352 349
135 124 155 175 163 170 171 56 75 160 69 312 34 65 65 9 16 15 47 31 21 46 61 24 351 16 344 52 305 32 89 103 299 292 290 355 112 213 191 49 332 343 337 345 346
142 118 127 144 152 160 159 57 176 185 110 75 45 57 3 1 100 75 40 25 23 26 78 18 301 339 19 11 21 324 48 193 256 3 339 133 45 335 2 306 326 328 335 346 348
150 116 96 138 155 164 81 134 120 351 35 107 106 23 72 344 54 62 31 310 335 45 200 96 326 354 303 36 27 87 153 21 13 326 309 314 168 287 313 309 320 329 341 346 349
155 121 89 131 137 100 103 124 125 58 98 56 136 101 77 54 59 68 153 339 349 326 89 116 106 297 12 26 318 349 36 48 109 130 254 301 250 133 271 293 310 328 342 346 346
164 89 121 160 57 56 88 130 122 83 60 64 89 92 105 94 73 111 141 41 358 331 58 97 127 284 240 320 39 79 121 116 115 288 234 203 274 175 263 311 311 332 336 341 342
144 107 81 159 127 88 114 69 76 73 41 41 98 55 95 108 78 99 105 72 20 42 131 173 70 358 343 11 22 65 51 149 116 88 219 188 271 214 324 333 336 340 334 344 347
153 93 77 72 100 123 130 113 102 60 84 75 111 94 96 93 35 153 114 115 18 75 45 128 125 163 203 235 83 299 334 230 133 143 273 247 303 325 318 329 332 334 335 340 346
157 119 134 140 59 113 102 132 125 120 82 83 61 62 136 122 98 116 101 116 45 29 12 72 120 275 258 344 258 272 297 110 116 184 185 281 292 295 300 318 322 323 332 334 341
156 140 102 82 117 101 56 151 132 136 95 300 138 67 33 115 120 186 136 182 189 8 53 19 210 31 325 28 314 161 164 106 123 251 269 283 296 260 315 326 322 323 334 336 341
166 146 140 62 106 95 174 155 157 131 68 95 137 106 67 102 103 93 94 105 143 156 132 77 119 66 268 349 32 321 209 153 230 233 222 258 256 305 320 327 324 327 336 343 341